Weather History for Indian Springs, NV

Change the Weather History Date:

Wednesday, September 18, 2013

  Actual Average (KDRA) Record (KDRA)
Temperature  
Mean Temperature 78 °F -  
Max Temperature 88 °F 88 °F 97 °F (2000)
Min Temperature 67 °F 59 °F 53 °F (2005)
Cooling Degree Days 12    
Growing Degree Days 28 (Base 50)    
Moisture  
Dew Point 23 °F    
Average Humidity 14    
Maximum Humidity 25    
Minimum Humidity 8    
Precipitation  
Precipitation 0.00 in - - ()
Sea Level Pressure  
Sea Level Pressure 29.81 in    
Wind  
Wind Speed 9 mph (NW)    
Max Wind Speed 20 mph    
Max Gust Speed 22 mph    
Visibility 10 miles    
Events      
Averages and records for this station are not official NWS values.
T = Trace of Precipitation, MM = Missing Value Source: NWS Daily Summary

Daily Weather History Graph

Daily Weather History Graph

Search for Another Location

Airport:

Trip Planner

Search our weather history database for the weather conditions in past years. The results will help you decide how hot, cold, wet, or windy it might be!

Date:

Astronomy

Sep. 18, 2013 Rise Set
Actual Time 6:27 AM PDT 6:45 PM PDT
Civil Twilight 6:01 AM PDT 7:10 PM PDT
Nautical Twilight 5:31 AM PDT 7:41 PM PDT
Astronomical Twilight 5:00 AM PDT 8:11 PM PDT
Moon 6:11 PM PDT (9/18) 5:35 AM PDT (9/18)
Length of Visible Light 13h 09m
Length of Day
12h 17m
Waxing Gibbous, 99% of the Moon is Illuminated
Sep 18
Waxing Gibbous
Sep 19
Full
Sep 26
Last Quarter
Oct 4
New
Oct 11
First Quarter

Hourly Weather History & Observations

Time (PDT) Temp. Dew Point Humidity Pressure Visibility Wind Dir Wind Speed Gust Speed Precip Events Conditions
12:58 AM 80.6 °F 16.2 °F 9% 29.72 in 10.0 mi WSW 19.6 mph - N/A   Clear
1:43 AM 77.0 °F 21.2 °F 12% 29.74 in 10.0 mi ESE 12.7 mph 21.9 mph N/A   Clear
1:58 AM 75.7 °F 19.4 °F 12% 29.74 in 10.0 mi SSE 10.4 mph - N/A   Clear
2:58 AM 74.7 °F 23.4 °F 15% 29.73 in 10.0 mi NNE 19.6 mph - N/A   Clear
3:06 AM 75.2 °F 24.8 °F 15% 29.75 in 10.0 mi North 18.4 mph - N/A   Clear
3:58 AM 71.8 °F 25.2 °F 18% 29.76 in 10.0 mi ESE 5.8 mph - N/A   Clear
4:58 AM 70.0 °F 28.0 °F 21% 29.78 in 10.0 mi SSW 8.1 mph - N/A   Clear
5:58 AM 67.5 °F 28.4 °F 23% 29.80 in 10.0 mi NNE 3.5 mph - N/A   Clear
6:58 AM 67.5 °F 25.7 °F 21% 29.83 in 10.0 mi West 9.2 mph - N/A   Clear
7:58 AM 68.0 °F 30.7 °F 25% 29.84 in 10.0 mi WNW 5.8 mph - N/A   Clear
8:58 AM 73.6 °F 26.8 °F 18% 29.86 in 10.0 mi West 2.3 mph - N/A   Clear
9:58 AM 76.8 °F 25.7 °F 15% 29.86 in 10.0 mi WNW 3.5 mph - N/A   Clear
10:58 AM 79.5 °F 23.0 °F 12% 29.86 in 10.0 mi Variable 1.2 mph - N/A   Clear
11:58 AM 82.6 °F 23.5 °F 11% 29.85 in 10.0 mi Calm Calm - N/A   Clear
12:58 PM 84.7 °F 21.0 °F 10% 29.84 in 10.0 mi Variable 1.2 mph - N/A   Clear
1:58 PM 85.6 °F 21.2 °F 9% 29.83 in 10.0 mi Variable 4.6 mph - N/A   Clear
2:58 PM 86.7 °F 19.2 °F 8% 29.81 in 10.0 mi NNE 3.5 mph - N/A   Clear
3:58 PM 87.3 °F 17.2 °F 8% 29.80 in 10.0 mi Calm Calm - N/A   Clear
4:58 PM 88.2 °F 20.3 °F 8% 29.79 in 10.0 mi NNE 5.8 mph - N/A   Clear
5:58 PM 86.9 °F 21.0 °F 9% 29.79 in 10.0 mi NW 1.2 mph - N/A   Clear
6:55 PM 84.2 °F 21.2 °F 10% 29.79 in 10.0 mi Calm Calm - N/A   Clear
7:55 PM 78.8 °F 23.0 °F 13% 29.82 in 10.0 mi NNE 8.1 mph - N/A   Clear
8:55 PM 78.8 °F 17.6 °F 10% 29.85 in 10.0 mi Variable 5.8 mph - N/A   Clear
9:55 PM 73.4 °F 19.4 °F 13% 29.87 in 10.0 mi WSW 1.2 mph - N/A   Clear
10:58 PM 74.3 °F 16.9 °F 11% 29.88 in 10.0 mi NNW 1.2 mph - N/A   Clear
11:58 PM 67.5 °F 25.3 °F 20% 29.89 in 10.0 mi West 4.6 mph - N/A   Clear